This is the latest recevied weather packets stored in our database for station/object WA1OUI. If no packets are shown the sender has not sent any weather packets the latest 10 day(s).
| Time | Temp. | Humidity | Pressure | Rain* | Wind** | Luminosity | Snow |
|---|---|---|---|---|---|---|---|
| 1778011830 | 26.67° C | 42% | 1005.1 hPa | 0 mm | - | 363 W/m² | - |
| 1778011528 | 26.11° C | 42% | 1005.1 hPa | 0 mm | - | 401 W/m² | - |
| 1778011224 | 26.67° C | 42% | 1005.2 hPa | 0 mm | - | 414 W/m² | - |
| 1778010920 | 26.11° C | 41% | 1005.3 hPa | 0 mm | - | 440 W/m² | - |
| 1778010618 | 26.67° C | 41% | 1005.2 hPa | 0 mm | - | 434 W/m² | - |
| 1778010316 | 26.67° C | 40% | 1005.3 hPa | 0 mm | - | 467 W/m² | - |
| 1778010016 | 26.67° C | 41% | 1005.4 hPa | 0 mm | - | 459 W/m² | - |
| 1778009714 | 27.22° C | 39% | 1005.2 hPa | 0 mm | - | 484 W/m² | - |
| 1778009411 | 27.22° C | 40% | 1005.1 hPa | 0 mm | - | 459 W/m² | - |
| 1778009109 | 27.22° C | 40% | 1005 hPa | 0 mm | - | 484 W/m² | - |
| 1778008806 | 26.67° C | 41% | 1005.1 hPa | 0 mm | - | 501 W/m² | - |
| 1778008505 | 26.67° C | 41% | 1005.1 hPa | 0 mm | - | 544 W/m² | - |
| 1778008202 | 27.22° C | 41% | 1005.2 hPa | 0 mm | - | 532 W/m² | - |
| 1778007896 | 27.22° C | 42% | 1005.5 hPa | 0 mm | - | 545 W/m² | - |
| 1778007592 | 26.67° C | 41% | 1005.4 hPa | 0 mm | - | 582 W/m² | - |
| 1778007290 | 26.67° C | 41% | 1005.4 hPa | 0 mm | - | 570 W/m² | - |
| 1778006986 | 26.67° C | 41% | 1005.5 hPa | 0 mm | - | 576 W/m² | - |
| 1778006683 | 26.67° C | 42% | 1005.5 hPa | 0 mm | - | 594 W/m² | - |
| 1778006379 | 26.67° C | 42% | 1005.8 hPa | 0 mm | - | 607 W/m² | - |
| 1778006076 | 26.67° C | 44% | 1005.6 hPa | 0 mm | - | 628 W/m² | - |
| 1778005773 | 27.22° C | 42% | 1005.6 hPa | 0 mm | - | 644 W/m² | - |
| 1778005470 | 26.67° C | 43% | 1005.9 hPa | 0 mm | - | 647 W/m² | - |
| 1778005166 | 26.67° C | 43% | 1005.9 hPa | 0 mm | - | 655 W/m² | - |
| 1778004864 | 27.22° C | 41% | 1005.9 hPa | 0 mm | - | 653 W/m² | - |
| 1778004561 | 27.22° C | 41% | 1005.8 hPa | 0 mm | - | 695 W/m² | - |
* Rain latest hour (hover to see other rain measurements)
** Current wind speed in m/s (hover to see current wind gust speed)